Estación de C. Llollinco

Ultimos registro cada 15 minutos 63
Estación Fecha / Hora Temperatura Humedad Lluvia Velocidad Dirección Radiación Presion
63 C. Llollinco 07-05-2026 15:30 10,6 73,8 0 1,1 227 116 0
62 C. Llollinco 07-05-2026 15:15 10,3 75,4 0 0,7 237 135 0
61 C. Llollinco 07-05-2026 15:00 10,3 76,8 0 1,7 231 129 0
60 C. Llollinco 07-05-2026 14:45 10,7 69,4 0 1 238 133 0
59 C. Llollinco 07-05-2026 14:30 10,4 72,4 0 0,1 238 197 0
58 C. Llollinco 07-05-2026 14:15 10,2 73,2 0 0,5 197 119 0
57 C. Llollinco 07-05-2026 14:00 10 77,7 0 0,2 198 142 0
56 C. Llollinco 07-05-2026 13:45 9,7 77,2 0 0,5 316 109 0
55 C. Llollinco 07-05-2026 13:30 10,3 76 0 0,7 283 94 0
54 C. Llollinco 07-05-2026 13:15 10,7 72,1 0 0,5 319 84 0
53 C. Llollinco 07-05-2026 13:00 10,7 71,8 0 0,2 287 117 0
52 C. Llollinco 07-05-2026 12:45 10,8 70,6 0 0,4 280 102 0
51 C. Llollinco 07-05-2026 12:30 11,1 66,7 0 0,8 260 230 0
50 C. Llollinco 07-05-2026 12:15 10,9 68,7 0 0,6 258 293 0
49 C. Llollinco 07-05-2026 12:00 11 66,2 0 0,6 327 241 0
48 C. Llollinco 07-05-2026 11:45 10,3 65,9 0 1 199 175 0
47 C. Llollinco 07-05-2026 11:30 10,7 63 0 1,3 247 176 0
46 C. Llollinco 07-05-2026 11:15 10,7 66,4 0 1 235 178 0
45 C. Llollinco 07-05-2026 11:00 10,8 63,6 0 0,7 222 182 0
44 C. Llollinco 07-05-2026 10:45 10,9 67 0 0,8 254 261 0
43 C. Llollinco 07-05-2026 10:30 10,9 65,2 0 0,3 231 338 0
42 C. Llollinco 07-05-2026 10:15 10,8 72,2 0 0 0 330 0
41 C. Llollinco 07-05-2026 10:00 9,8 72,1 0 0,1 27 290 0
40 C. Llollinco 07-05-2026 09:45 8,5 80,7 0 0 11 257 0
39 C. Llollinco 07-05-2026 09:30 7,3 87,5 0 0 0 185 0
38 C. Llollinco 07-05-2026 09:15 6,7 93,9 0 0 0 106 0
37 C. Llollinco 07-05-2026 09:00 5,6 95,5 0 0 0 170 0
36 C. Llollinco 07-05-2026 08:45 4,6 96 0 0 0 123 0
35 C. Llollinco 07-05-2026 08:30 4 95,4 0 0 0 85 0
34 C. Llollinco 07-05-2026 08:15 3,5 95,5 0 0 0 36 0
33 C. Llollinco 07-05-2026 08:00 3,7 94,9 0 0 0 10 0
32 C. Llollinco 07-05-2026 07:45 3,7 94,9 0 0 0 3 0
31 C. Llollinco 07-05-2026 07:30 3,9 93,9 0 0 0 1 0
30 C. Llollinco 07-05-2026 07:15 4 93,7 0 0 0 0 0
29 C. Llollinco 07-05-2026 07:00 4,4 93,1 0 0 215 0 0
28 C. Llollinco 07-05-2026 06:45 5 91,3 0 0,1 205 0 0
27 C. Llollinco 07-05-2026 06:30 5,7 89,8 0 0 205 0 0
26 C. Llollinco 07-05-2026 06:15 6,3 85,2 0 0,3 205 0 0
25 C. Llollinco 07-05-2026 06:00 6,6 84,6 0 0,3 216 0 0
24 C. Llollinco 07-05-2026 05:45 7,5 79,8 0 0,5 229 0 0
23 C. Llollinco 07-05-2026 05:30 7,9 75,3 0 0,6 215 0 0
22 C. Llollinco 07-05-2026 05:15 8,4 75,7 0 0,2 237 0 0
21 C. Llollinco 07-05-2026 05:00 8,9 75,2 0 0,7 228 0 0
20 C. Llollinco 07-05-2026 04:45 9,4 74 0 1,3 232 0 0
19 C. Llollinco 07-05-2026 04:30 9,3 73,5 0 1,2 216 0 0
18 C. Llollinco 07-05-2026 04:15 9,4 78,5 0 0,8 257 0 0
17 C. Llollinco 07-05-2026 04:00 9,5 76,7 0 1,3 242 0 0
16 C. Llollinco 07-05-2026 03:45 9,7 76,9 0 1,5 242 0 0
15 C. Llollinco 07-05-2026 03:30 9,7 75,5 0 1,6 212 0 0
14 C. Llollinco 07-05-2026 03:15 9,6 78,3 0 1,8 231 0 0
13 C. Llollinco 07-05-2026 03:00 9,7 81,1 0 1,9 241 0 0
12 C. Llollinco 07-05-2026 02:45 9,7 77,9 0 2,4 232 0 0
11 C. Llollinco 07-05-2026 02:30 9,6 82 0 1,6 231 0 0
10 C. Llollinco 07-05-2026 02:15 9,5 83,9 0 1,8 243 0 0
9 C. Llollinco 07-05-2026 02:00 9,4 85,8 0 1,9 242 0 0
8 C. Llollinco 07-05-2026 01:45 9,5 85,7 0 1,6 239 0 0
7 C. Llollinco 07-05-2026 01:30 9,4 87,2 0 2 242 0 0
6 C. Llollinco 07-05-2026 01:15 9,4 88,9 0 2,1 238 0 0
5 C. Llollinco 07-05-2026 01:00 9,5 87 0 2,1 227 0 0
4 C. Llollinco 07-05-2026 00:45 9,5 85,2 0 2,5 228 0 0
3 C. Llollinco 07-05-2026 00:30 9,4 85,9 0 2,2 234 0 0
2 C. Llollinco 07-05-2026 00:15 9,4 87,9 0 1,2 250 0 0
1 C. Llollinco 07-05-2026 00:00 9,4 86,6 0 1,4 255 0 0